�������l�o���
Date,Time,MP-1(��Sv/h),MP-2(��Sv/h),MP-3(��Sv/h),MP-4(��Sv/h),MP-5(��Sv/h),MP-6(��Sv/h),MP-7(��Sv/h),MP-8(��Sv/h),����,����(m/s),���J
2022/10/25,00:00,0.566,0.818,0.524,1.034,0.723,0.336,0.587,0.553,�k�k��,7.7,��
2022/10/25,00:10,0.567,0.816,0.523,1.032,0.723,0.335,0.587,0.554,�k��,8.3,��
2022/10/25,00:20,0.567,0.817,0.525,1.032,0.724,0.334,0.586,0.554,�k�k��,8.9,��
2022/10/25,00:30,0.567,0.818,0.525,1.032,0.722,0.335,0.587,0.554,�k�k��,8.3,��
2022/10/25,00:40,0.568,0.818,0.525,1.032,0.723,0.335,0.588,0.552,�k�k��,8.0,��
2022/10/25,00:50,0.568,0.818,0.523,1.032,0.724,0.334,0.590,0.553,�k�k��,8.2,��
2022/10/25,01:00,0.567,0.818,0.524,1.034,0.723,0.335,0.587,0.555,�k��,9.0,��
2022/10/25,01:10,0.568,0.818,0.523,1.031,0.724,0.334,0.587,0.554,�k��,9.1,��
2022/10/25,01:20,0.567,0.817,0.524,1.030,0.724,0.335,0.588,0.554,�k�k��,8.8,��
2022/10/25,01:30,0.568,0.819,0.525,1.033,0.723,0.336,0.587,0.554,�k�k��,9.2,��
2022/10/25,01:40,0.567,0.818,0.525,1.034,0.723,0.335,0.586,0.554,�k��,7.4,��
2022/10/25,01:50,0.566,0.818,0.524,1.034,0.721,0.335,0.588,0.553,�k�k��,6.1,��
2022/10/25,02:00,0.566,0.817,0.524,1.032,0.723,0.333,0.587,0.554,�k��,8.1,��
2022/10/25,02:10,0.568,0.821,0.524,1.031,0.724,0.334,0.587,0.554,�k�k��,7.0,��
2022/10/25,02:20,0.566,0.819,0.525,1.032,0.723,0.336,0.587,0.555,�k�k��,6.8,��
2022/10/25,02:30,0.567,0.817,0.523,1.033,0.722,0.334,0.587,0.555,�k�k��,7.5,��
2022/10/25,02:40,0.568,0.817,0.524,1.031,0.722,0.334,0.587,0.554,�k�k��,7.5,��
2022/10/25,02:50,0.567,0.820,0.522,1.032,0.723,0.333,0.587,0.552,�k�k��,6.7,��
2022/10/25,03:00,0.568,0.819,0.525,1.034,0.723,0.335,0.588,0.553,�k�k��,7.3,��
2022/10/25,03:10,0.569,0.818,0.524,1.033,0.723,0.336,0.587,0.554,�k�k��,8.3,��
2022/10/25,03:20,0.568,0.819,0.524,1.033,0.722,0.335,0.589,0.554,�k��,7.7,��
2022/10/25,03:30,0.568,0.819,0.524,1.033,0.723,0.334,0.587,0.554,�k��,5.9,��
2022/10/25,03:40,0.567,0.818,0.525,1.032,0.722,0.335,0.587,0.554,�k�k��,6.8,��
2022/10/25,03:50,0.565,0.819,0.523,1.033,0.723,0.334,0.587,0.553,�k��,7.0,��
2022/10/25,04:00,0.566,0.818,0.525,1.033,0.723,0.335,0.587,0.555,�k�k��,6.7,��
2022/10/25,04:10,0.568,0.817,0.524,1.032,0.723,0.335,0.587,0.554,�k�k��,9.8,��
2022/10/25,04:20,0.567,0.818,0.526,1.033,0.723,0.335,0.587,0.553,�k��,8.0,��
2022/10/25,04:30,0.567,0.817,0.525,1.035,0.724,0.335,0.588,0.555,�k�k��,8.1,��
2022/10/25,04:40,0.568,0.819,0.524,1.034,0.723,0.335,0.588,0.553,�k�k��,9.3,��
2022/10/25,04:50,0.568,0.817,0.524,1.031,0.723,0.335,0.585,0.554,�k�k��,8.5,��
2022/10/25,05:00,0.567,0.821,0.524,1.034,0.721,0.334,0.587,0.555,�k�k��,9.1,��
2022/10/25,05:10,0.567,0.817,0.523,1.036,0.724,0.334,0.587,0.553,�k�k��,9.6,��
2022/10/25,05:20,0.568,0.817,0.523,1.033,0.723,0.334,0.587,0.554,�k�k��,9.5,��
2022/10/25,05:30,0.568,0.818,0.525,1.033,0.724,0.333,0.588,0.555,�k��,9.5,��
2022/10/25,05:40,0.569,0.816,0.525,1.034,0.723,0.335,0.587,0.554,�k�k��,9.2,��
2022/10/25,05:50,0.568,0.818,0.524,1.032,0.723,0.335,0.587,0.554,�k�k��,9.4,��
2022/10/25,06:00,0.567,0.818,0.525,1.034,0.724,0.336,0.587,0.554,�k�k��,9.4,��
2022/10/25,06:10,0.566,0.819,0.524,1.036,0.724,0.335,0.587,0.554,�k��,9.2,��
2022/10/25,06:20,0.567,0.819,0.523,1.034,0.722,0.335,0.586,0.553,�k�k��,10.6,��
2022/10/25,06:30,0.566,0.819,0.524,1.032,0.724,0.335,0.585,0.555,�k�k��,11.6,��
2022/10/25,06:40,0.568,0.820,0.525,1.032,0.723,0.334,0.586,0.554,�k�k��,10.2,��
2022/10/25,06:50,0.567,0.818,0.524,1.032,0.722,0.334,0.586,0.556,�k��,10.4,��
2022/10/25,07:00,0.567,0.817,0.526,1.034,0.724,0.333,0.587,0.555,�k�k��,9.8,��
2022/10/25,07:10,0.567,0.819,0.524,1.036,0.726,0.333,0.585,0.555,�k��,9.1,��
2022/10/25,07:20,0.568,0.818,0.523,1.035,0.725,0.334,0.586,0.552,�k�k��,9.7,��
2022/10/25,07:30,0.566,0.819,0.525,1.034,0.724,0.333,0.587,0.554,�k��,10.0,��
2022/10/25,07:40,0.567,0.818,0.525,1.034,0.726,0.335,0.585,0.553,�k�k��,10.2,��
2022/10/25,07:50,0.566,0.818,0.524,1.034,0.721,0.334,0.586,0.554,�k�k��,10.8,��
2022/10/25,08:00,0.569,0.819,0.524,1.034,0.724,0.334,0.585,0.555,�k�k��,10.5,��
2022/10/25,08:10,0.566,0.816,0.525,1.036,0.726,0.333,0.584,0.554,�k�k��,9.8,��
2022/10/25,08:20,0.567,0.820,0.523,1.034,0.725,0.335,0.584,0.555,�k�k��,9.9,��
2022/10/25,08:30,0.568,0.817,0.523,1.034,0.725,0.334,0.584,0.555,�k�k��,9.8,��
2022/10/25,08:40,0.567,0.820,0.526,1.032,0.724,0.334,0.584,0.554,�k�k��,8.4,��
2022/10/25,08:50,0.568,0.819,0.525,1.033,0.725,0.335,0.583,0.554,�k�k��,8.2,��
2022/10/25,09:00,0.569,0.820,0.524,1.033,0.724,0.334,0.584,0.554,�k�k��,8.0,��
2022/10/25,09:10,0.570,0.818,0.526,1.033,0.724,0.334,0.583,0.555,�k�k��,8.7,��
2022/10/25,09:20,0.568,0.820,0.524,1.035,0.726,0.335,0.584,0.556,�k�k��,8.6,��
2022/10/25,09:30,0.569,0.817,0.525,1.034,0.724,0.336,0.584,0.555,�k,7.7,��
2022/10/25,09:40,0.570,0.820,0.526,1.033,0.725,0.335,0.584,0.553,�k�k��,7.2,��
2022/10/25,09:50,0.569,0.820,0.525,1.036,0.726,0.336,0.585,0.555,�k�k��,8.4,��
2022/10/25,10:00,0.569,0.819,0.525,1.035,0.726,0.332,0.583,0.553,�k�k��,8.5,��
2022/10/25,10:10,0.569,0.819,0.524,1.033,0.724,0.335,0.584,0.555,�k�k��,8.5,��
2022/10/25,10:20,0.568,0.816,0.526,1.037,0.727,0.334,0.583,0.555,�k�k��,9.6,��
2022/10/25,10:30,0.569,0.818,0.524,1.035,0.725,0.335,0.585,0.557,�k�k��,10.2,��
2022/10/25,10:40,0.569,0.818,0.524,1.035,0.724,0.335,0.585,0.555,�k,9.2,��
2022/10/25,10:50,0.569,0.817,0.524,1.037,0.725,0.334,0.584,0.554,�k�k��,9.1,��
2022/10/25,11:00,0.569,0.816,0.523,1.036,0.726,0.334,0.585,0.554,�k,7.7,��
2022/10/25,11:10,0.569,0.817,0.522,1.034,0.724,0.333,0.584,0.555,�k,7.6,��
2022/10/25,11:20,0.567,0.816,-,1.038,0.724,0.335,0.586,0.554,�k�k��,8.2,��
2022/10/25,11:30,0.570,0.818,-,1.035,0.724,0.335,0.584,0.556,�k�k��,7.8,��
2022/10/25,11:40,0.569,0.815,-,1.037,0.723,0.336,0.583,0.555,�k,7.8,��
2022/10/25,11:50,0.569,0.818,-,1.037,0.721,0.335,0.584,0.554,�k,11.1,��
2022/10/25,12:00,0.568,0.819,-,1.037,0.727,0.335,0.584,0.555,�k�k��,8.9,��
2022/10/25,12:10,0.570,0.820,-,1.037,0.725,0.335,0.586,0.554,�k,8.8,��
2022/10/25,12:20,0.569,0.818,-,1.036,0.726,0.335,0.584,0.553,�k,8.6,��
2022/10/25,12:30,0.570,0.819,-,1.038,0.723,0.334,0.583,0.552,�k�k��,9.1,��
2022/10/25,12:40,0.569,0.816,-,1.038,0.724,0.335,0.586,0.554,�k,9.1,��
2022/10/25,12:50,0.569,0.818,-,1.036,0.724,0.335,0.584,0.553,�k�k��,8.5,��
2022/10/25,13:00,0.571,0.820,-,1.037,0.724,0.336,0.584,0.554,�k�k��,10.3,��
2022/10/25,13:10,0.568,0.818,-,1.037,0.724,0.333,0.584,0.552,�k,7.3,��
2022/10/25,13:20,0.570,0.819,-,1.036,0.724,0.334,0.585,0.553,�k,9.0,��
2022/10/25,13:30,0.569,0.819,-,1.036,0.725,0.335,0.585,0.553,�k,8.3,��
2022/10/25,13:40,0.570,0.818,-,1.037,0.726,0.334,0.584,0.553,�k�k��,8.2,�L
2022/10/25,13:50,0.569,0.818,-,1.039,0.725,0.334,0.584,0.553,�k,8.7,�L
2022/10/25,14:00,0.570,0.818,-,1.037,0.725,0.335,0.584,0.552,�k�k��,8.7,�L
2022/10/25,14:10,0.569,0.817,-,1.037,0.723,0.335,0.584,0.553,�k,8.1,��
2022/10/25,14:20,0.569,0.817,-,1.035,0.725,0.335,0.584,0.554,�k,11.9,�L
2022/10/25,14:30,0.570,0.817,-,1.037,0.725,0.334,0.585,0.554,�k,11.6,�L
2022/10/25,14:40,0.572,0.820,-,1.038,0.725,0.336,0.585,0.553,�k,12.4,��
2022/10/25,14:50,0.570,0.822,-,1.040,0.725,0.336,0.585,0.553,�k,11.8,��
2022/10/25,15:00,0.568,0.817,-,1.037,0.727,0.336,0.585,0.554,�k�k��,13.5,��
2022/10/25,15:10,0.569,0.817,-,1.039,0.726,0.335,0.583,0.554,�k,13.0,��
2022/10/25,15:20,0.568,0.820,-,1.040,0.725,0.335,0.584,0.554,�k,12.7,��
2022/10/25,15:30,0.570,0.821,0.524,1.040,0.727,0.334,0.584,0.552,�k,13.0,��
2022/10/25,15:40,0.569,0.819,0.524,1.040,0.726,0.336,0.584,0.552,�k,11.0,��
2022/10/25,15:50,0.570,0.822,0.526,1.037,0.726,0.335,0.584,0.553,�k,11.0,��
2022/10/25,16:00,0.570,0.820,0.525,1.038,0.726,0.336,0.586,0.553,�k,11.8,��
2022/10/25,16:10,0.572,0.821,0.524,1.037,0.724,0.335,0.583,0.556,�k,11.9,��
2022/10/25,16:20,0.570,0.820,0.524,1.039,0.727,0.336,0.585,0.555,�k,10.2,�L
2022/10/25,16:30,0.572,0.820,0.525,1.036,0.726,0.335,0.584,0.557,�k,13.3,�L
2022/10/25,16:40,0.569,0.821,0.523,1.038,0.725,0.335,0.584,0.554,�k,12.4,�L
2022/10/25,16:50,0.571,0.821,0.523,1.038,0.726,0.336,0.585,0.553,�k,13.3,�L
2022/10/25,17:00,0.572,0.821,0.525,1.038,0.725,0.334,0.584,0.554,�k,10.2,��
2022/10/25,17:10,0.571,0.820,0.525,1.037,0.727,0.334,0.582,0.554,�k,10.4,��
2022/10/25,17:20,0.572,0.826,0.524,1.038,0.726,0.335,0.583,0.554,�k,13.5,�L
2022/10/25,17:30,0.574,0.824,0.525,1.039,0.728,0.336,0.584,0.554,�k,10.5,�L
2022/10/25,17:40,0.573,0.826,0.523,1.039,0.728,0.336,0.584,0.555,�k,9.3,�L
2022/10/25,17:50,0.573,0.825,0.524,1.037,0.727,0.336,0.583,0.555,�k,11.6,�L
2022/10/25,18:00,0.572,0.822,0.523,1.039,0.726,0.336,0.584,0.554,�k,11.7,�L
2022/10/25,18:10,0.568,0.819,0.522,1.037,0.723,0.335,0.583,0.555,�k,11.7,�L
2022/10/25,18:20,0.570,0.821,0.521,1.036,0.724,0.336,0.583,0.552,�k,13.8,�L
2022/10/25,18:30,0.569,0.818,0.521,1.036,0.723,0.335,0.582,0.553,�k�k��,9.5,�L
2022/10/25,18:40,0.569,0.817,0.521,1.038,0.724,0.336,0.582,0.552,�k,7.1,�L
2022/10/25,18:50,0.568,0.816,0.522,1.034,0.723,0.336,0.583,0.554,�k,11.7,�L
2022/10/25,19:00,0.569,0.817,0.521,1.034,0.723,0.335,0.582,0.553,�k,10.0,�L
2022/10/25,19:10,0.566,0.811,0.519,1.034,0.719,0.334,0.582,0.552,�k,14.1,�L
2022/10/25,19:20,0.565,0.808,0.517,1.029,0.713,0.333,0.581,0.552,�k,13.2,�L
2022/10/25,19:30,0.566,0.807,0.519,1.027,0.715,0.336,0.583,0.551,�k,10.5,�L
2022/10/25,19:40,0.565,0.809,0.517,1.028,0.715,0.334,0.581,0.551,�k�k��,8.0,�L
2022/10/25,19:50,0.564,0.807,0.516,1.027,0.715,0.334,0.580,0.550,�k�k��,7.2,�L
2022/10/25,20:00,0.567,0.808,0.518,1.027,0.714,0.333,0.581,0.552,�k�k��,8.6,�L
2022/10/25,20:10,0.564,0.806,0.516,1.028,0.714,0.334,0.581,0.552,�k�k��,8.6,�L
2022/10/25,20:20,0.565,0.807,0.515,1.026,0.712,0.334,0.581,0.552,�k�k��,9.2,�L
2022/10/25,20:30,0.566,0.807,0.516,1.030,0.712,0.332,0.581,0.551,�k�k��,10.3,�L
2022/10/25,20:40,0.563,0.807,0.517,1.028,0.713,0.332,0.581,0.552,�k�k��,9.1,�L
2022/10/25,20:50,0.562,0.806,0.516,1.027,0.711,0.333,0.581,0.552,�k��,9.5,�L
2022/10/25,21:00,0.564,0.806,0.514,1.028,0.713,0.332,0.580,0.552,�k�k��,8.3,�L
2022/10/25,21:10,0.564,0.806,0.515,1.028,0.711,0.333,0.580,0.553,�k�k��,8.9,�L
2022/10/25,21:20,0.562,0.805,0.514,1.028,0.711,0.334,0.581,0.551,�k��,9.5,�L
2022/10/25,21:30,0.564,0.807,0.516,1.027,0.710,0.333,0.582,0.551,�k�k��,10.0,�L
2022/10/25,21:40,0.562,0.805,0.513,1.028,0.712,0.332,0.578,0.551,�k�k��,9.8,�L
2022/10/25,21:50,0.563,0.803,0.515,1.026,0.709,0.334,0.581,0.551,�k�k��,10.5,�L
2022/10/25,22:00,0.561,0.804,0.514,1.028,0.710,0.334,0.581,0.552,�k�k��,10.2,��
2022/10/25,22:10,0.562,0.803,0.514,1.026,0.711,0.334,0.581,0.551,�k�k��,10.6,��
2022/10/25,22:20,0.563,0.803,0.514,1.026,0.709,0.333,0.580,0.550,�k�k��,10.8,��
2022/10/25,22:30,0.561,0.806,0.514,1.028,0.712,0.332,0.581,0.550,�k�k��,10.8,��
2022/10/25,22:40,0.562,0.805,0.511,1.027,0.712,0.332,0.581,0.549,�k�k��,9.4,��
2022/10/25,22:50,0.561,0.806,0.514,1.025,0.710,0.330,0.580,0.552,�k�k��,10.5,��
2022/10/25,23:00,0.561,0.802,0.513,1.026,0.707,0.331,0.580,0.551,�k�k��,10.2,��
2022/10/25,23:10,0.561,0.804,0.512,1.024,0.711,0.332,0.581,0.551,�k�k��,10.6,��
2022/10/25,23:20,0.563,0.805,0.512,1.024,0.711,0.330,0.579,0.551,�k�k��,9.9,��
2022/10/25,23:30,0.561,0.804,0.514,1.027,0.712,0.332,0.580,0.550,�k�k��,11.9,��
2022/10/25,23:40,0.561,0.806,0.513,1.027,0.712,0.331,0.580,0.550,�k�k��,11.3,��
2022/10/25,23:50,0.563,0.807,0.515,1.025,0.710,0.331,0.580,0.551,�k�k��,10.7,��
